Location: Arrington
(35.8681°N, 86.7092°W)
Time: 18:07:58
(UTC+00:00)

Timation 1 Rocket - Pass Details

Date: 23 November 2019
Orbit: 899 x 908 km, 70.0° (Epoch: 14 December)

Event Time Altitude Azimuth Distance (km) Brightness Sun altitude
Rises 00:32:56 0° 335° (NNW) 3,532 7.6 -23.5°
Reaches altitude 10° 00:35:26 10° 335° (NNW) 2,589 6.9 -24.0°
Maximum altitude 00:41:25 80° 249° (WSW) 923 4.4 -25.2°
Drops below altitude 10° 00:47:23 10° 163° (SSE) 2,580 6.6 -26.4°
Sets 00:49:53 0° 162° (SSE) 3,518 7.3 -26.9°
